QPF
0.02 0.01 0.06 0.09 0.05 0.04 0.00 0.00 0.00 0.00 0.00 0.00 0.00 0.00 0.00 0.00 0.00 0.00 0.00 0.00 0.00 0.03 0.00 0.00 0.00 0.00 0.00 0.00 0.00 0.00 0.00 0.00 0.00 0.00 0.00 0.00 0.00 0.00 0.00 0.00 0.00 0.00 0.00
0.03 0.01 0.03 0.04 0.11 0.03 0.04 0.00 0.00 0.00 0.00 0.00 0.00 0.00 0.00 0.00 0.00 0.00 0.00 0.00 0.00 0.02 0.00 0.00 0.00 0.00 0.00 0.00 0.00 0.00 0.00 0.00 0.00 0.00 0.00 0.00 0.00 0.00 0.00 0.00 0.00 0.00 0.00
0.00 0.02 0.01 0.03 0.05 0.07 0.02 0.02 0.00 0.00 0.00 0.00 0.00 0.00 0.00 0.00 0.00 0.00 0.00 0.00 0.03 0.00 0.00 0.00 0.00 0.00 0.00 0.00 0.00 0.00 0.00 0.00 0.00 0.00 0.00 0.00 0.00 0.01 0.00 0.00 0.00 0.00 0.00
0.00 0.01 0.01 0.02 0.03 0.05 0.02 0.02 0.00 0.00 0.01 0.00 0.00 0.00 0.00 0.00 0.01 0.00 0.00 0.03 0.06 0.00 0.00 0.00 0.00 0.00 0.00 0.00 0.00 0.00 0.00 0.00 0.00 0.00 0.00 0.00 0.01 0.04 0.01 0.00 0.00 0.00 0.00
0.00 0.01 0.01 0.02 0.03 0.06 0.03 0.01 0.01 0.00 0.01 0.00 0.00 0.00 0.00 0.01 0.02 0.00 0.01 0.01 0.00 0.00 0.00 0.00 0.00 0.00 0.00 0.00 0.00 0.00 0.00 0.00 0.00 0.00 0.00 0.00 0.00 0.01 0.00 0.00 0.00 0.00 0.00
0.00 0.01 0.00 0.01 0.02 0.03 0.04 0.01 0.01 0.00 0.01 0.00 0.00 0.00 0.00 0.00 0.01 0.00 0.00 0.00 0.00 0.00 0.00 0.00 0.00 0.00 0.00 0.00 0.00 0.00 0.00 0.00 0.00 0.00 0.00 0.00 0.01 0.01 0.01 0.00 0.00 0.00 0.00
0.00 0.00 0.06 0.07 0.03 0.03 0.04 0.03 0.01 0.00 0.01 0.00 0.00 0.00 0.00 0.00 0.02 0.00 0.00 0.00 0.00 0.00 0.00 0.00 0.00 0.00 0.00 0.00 0.00 0.00 0.00 0.00 0.00 0.00 0.00 0.00 0.00 0.00 0.02 0.01 0.00 0.00 0.00
0.00 0.00 0.06 0.14 0.05 0.02 0.04 0.07 0.03 0.02 0.02 0.00 0.00 0.00 0.00 0.00 0.01 0.00 0.00 0.00 0.00 0.00 0.00 0.00 0.00 0.00 0.00 0.00 0.00 0.00 0.00 0.00 0.00 0.00 0.00 0.00 0.00 0.00 0.00 0.01 0.00 0.00 0.00
0.00 0.00 0.00 0.02 0.05 0.08 0.03 0.02 0.03 0.05 0.04 0.02 0.00 0.00 0.00 0.00 0.00 0.00 0.00 0.00 0.00 0.00 0.00 0.00 0.00 0.00 0.00 0.00 0.00 0.00 0.00 0.00 0.00 0.00 0.00 0.00 0.00 0.00 0.00 0.00 0.00 0.00 0.00
0.00 0.00 0.01 0.00 0.01 0.06 0.12 0.08 0.02 0.01 0.01 0.01 0.00 0.00 0.00 0.00 0.00 0.00 0.00 0.00 0.00 0.00 0.00 0.00 0.00 0.00 0.00 0.00 0.00 0.00 0.00 0.00 0.00 0.00 0.00 0.00 0.00 0.00 0.00 0.00 0.00 0.00 0.00
0.00 0.00 0.00 0.00 0.00 0.00 0.04 0.11 0.10 0.03 0.00 0.00 0.00 0.00 0.00 0.00 0.00 0.00 0.00 0.00 0.00 0.00 0.00 0.00 0.00 0.00 0.00 0.00 0.00 0.00 0.00 0.00 0.00 0.00 0.00 0.00 0.00 0.00 0.00 0.00 0.00 0.00 0.00
0.00 0.00 0.00 0.00 0.00 0.00 0.01 0.05 0.10 0.06 0.00 0.00 0.00 0.00 0.00 0.00 0.00 0.00 0.00 0.00 0.00 0.00 0.00 0.00 0.00 0.00 0.00 0.00 0.00 0.00 0.00 0.00 0.00 0.00 0.00 0.00 0.00 0.00 0.00 0.00 0.00 0.00 0.00
0.00 0.00 0.00 0.00 0.00 0.00 0.00 0.00 0.07 0.11 0.03 0.02 0.01 0.00 0.00 0.00 0.00 0.00 0.00 0.00 0.00 0.00 0.00 0.00 0.00 0.00 0.00 0.00 0.00 0.00 0.00 0.00 0.00 0.00 0.00 0.00 0.00 0.00 0.00 0.00 0.00 0.00 0.00
0.00 0.00 0.00 0.00 0.00 0.00 0.00 0.00 0.00 0.01 0.04 0.07 0.10 0.07 0.02 0.00 0.00 0.00 0.00 0.00 0.00 0.00 0.00 0.00 0.00 0.00 0.00 0.00 0.00 0.00 0.00 0.00 0.00 0.00 0.00 0.00 0.00 0.00 0.00 0.00 0.00 0.00 0.00
0.00 0.00 0.00 0.00 0.00 0.00 0.00 0.00 0.00 0.00 0.00 0.04 0.10 0.12 0.10 0.03 0.00 0.00 0.00 0.00 0.00 0.00 0.00 0.00 0.00 0.00 0.00 0.00 0.00 0.00 0.00 0.00 0.00 0.00 0.00 0.00 0.00 0.00 0.00 0.00 0.00 0.00 0.00
0.00 0.00 0.00 0.00 0.00 0.00 0.00 0.00 0.00 0.00 0.00 0.00 0.01 0.05 0.10 0.09 0.05 0.02 0.01 0.00 0.00 0.00 0.00 0.00 0.00 0.00 0.00 0.00 0.00 0.00 0.00 0.00 0.00 0.00 0.00 0.00 0.00 0.00 0.00 0.00 0.00 0.00 0.00
0.00 0.00 0.00 0.00 0.00 0.00 0.00 0.00 0.00 0.00 0.00 0.00 0.00 0.00 0.03 0.05 0.08 0.09 0.06 0.04 0.01 0.01 0.00 0.00 0.01 0.00 0.02 0.00 0.00 0.00 0.00 0.00 0.00 0.00 0.00 0.00 0.00 0.00 0.00 0.00 0.00 0.00 0.00
0.00 0.00 0.00 0.00 0.00 0.00 0.00 0.00 0.00 0.00 0.00 0.00 0.00 0.00 0.00 0.01 0.04 0.08 0.10 0.06 0.16 0.17 0.16 0.08 0.09 0.02 0.00 0.01 0.00 0.00 0.00 0.00 0.00 0.00 0.00 0.00 0.00 0.00 0.00 0.00 0.00 0.00 0.00
0.00 0.00 0.00 0.00 0.00 0.00 0.00 0.00 0.00 0.00 0.00 0.00 0.00 0.00 0.00 0.00 0.01 0.03 0.07 0.09 0.14 0.21 0.21 0.16 0.15 0.09 0.03 0.02 0.03 0.01 0.00 0.00 0.00 0.00 0.00 0.00 0.00 0.00 0.00 0.00 0.00 0.00 0.00
0.00 0.00 0.00 0.00 0.00 0.00 0.00 0.00 0.00 0.00 0.00 0.00 0.00 0.00 0.00 0.00 0.00 0.01 0.04 0.06 0.08 0.10 0.13 0.13 0.10 0.10 0.07 0.06 0.02 0.03 0.02 0.00 0.00 0.00 0.00 0.00 0.00 0.00 0.00 0.00 0.00 0.00 0.00
0.00 0.00 0.00 0.00 0.00 0.00 0.00 0.00 0.00 0.00 0.00 0.00 0.00 0.00 0.00 0.00 0.00 0.00 0.01 0.04 0.05 0.05 0.04 0.08 0.09 0.09 0.07 0.06 0.03 0.00 0.02 0.01 0.00 0.00 0.00 0.00 0.00 0.00 0.00 0.00 0.00 0.00 0.00
0.00 0.00 0.00 0.00 0.00 0.00 0.00 0.00 0.00 0.00 0.00 0.00 0.00 0.00 0.00 0.00 0.00 0.00 0.00 0.01 0.03 0.04 0.05 0.05 0.08 0.06 0.04 0.04 0.04 0.02 0.00 0.00 0.00 0.00 0.00 0.00 0.00 0.00 0.00 0.00 0.00 0.00 0.00
0.00 0.00 0.00 0.00 0.00 0.00 0.00 0.00 0.00 0.00 0.00 0.00 0.00 0.00 0.00 0.00 0.00 0.00 0.00 0.00 0.01 0.04 0.04 0.05 0.05 0.08 0.08 0.05 0.05 0.06 0.02 0.00 0.00 0.00 0.00 0.00 0.00 0.00 0.00 0.00 0.00 0.00 0.00
0.00 0.00 0.00 0.00 0.00 0.00 0.00 0.00 0.00 0.00 0.00 0.00 0.00 0.00 0.00 0.00 0.00 0.00 0.00 0.00 0.00 0.01 0.02 0.05 0.08 0.07 0.08 0.09 0.07 0.08 0.04 0.01 0.00 0.00 0.00 0.00 0.00 0.00 0.00 0.00 0.00 0.00 0.00
0.00 0.00 0.00 0.00 0.00 0.00 0.00 0.00 0.00 0.00 0.00 0.00 0.00 0.00 0.00 0.00 0.00 0.00 0.00 0.00 0.00 0.00 0.00 0.01 0.05 0.07 0.09 0.10 0.08 0.07 0.13 0.19 0.15 0.06 0.04 0.01 0.00 0.00 0.00 0.00 0.00 0.00 0.00
0.00 0.00 0.00 0.00 0.00 0.00 0.00 0.00 0.00 0.00 0.00 0.00 0.00 0.00 0.00 0.00 0.00 0.00 0.00 0.00 0.00 0.00 0.00 0.00 0.01 0.04 0.06 0.10 0.11 0.07 0.06 0.09 0.16 0.20 0.19 0.14 0.06 0.01 0.00 0.00 0.00 0.00 0.00
MSLP
1015.76 1015.65 1015.49 1015.47 1015.66 1015.79 1015.98 1016.10 1016.20 1016.22 1016.34 1016.28 1016.26 1016.41 1016.57 1016.55 1016.54 1016.48 1016.48 1016.55 1016.56 1016.50 1016.51 1016.73 1016.98 1016.98 1017.19 1017.24 1017.24 1017.37 1017.47 1017.43 1017.42 1017.38 1017.36 1017.39 1017.41 1017.48 1017.60 1017.64 1017.63 1017.53 1017.51
1015.88 1015.52 1015.45 1015.53 1015.63 1015.84 1015.96 1016.22 1016.38 1016.49 1016.54 1016.61 1016.59 1016.59 1016.62 1016.72 1016.71 1016.65 1016.59 1016.59 1016.68 1016.66 1016.86 1017.00 1017.12 1017.23 1017.32 1017.50 1017.69 1017.67 1017.74 1017.83 1017.81 1017.82 1017.79 1017.77 1017.79 1017.82 1017.94 1017.97 1017.86 1017.96 1017.87
1015.77 1015.40 1015.37 1015.59 1015.76 1015.94 1016.02 1016.19 1016.36 1016.52 1016.68 1016.83 1016.85 1016.92 1016.82 1016.76 1016.78 1016.79 1016.75 1016.76 1016.77 1016.87 1017.03 1017.25 1017.39 1017.52 1017.54 1017.59 1017.80 1018.06 1018.03 1018.04 1018.13 1018.19 1018.19 1018.22 1018.14 1018.11 1018.24 1018.30 1018.28 1018.22 1018.08
1015.53 1015.03 1015.21 1015.52 1015.75 1016.00 1016.15 1016.23 1016.27 1016.36 1016.62 1016.94 1016.98 1017.03 1017.05 1016.89 1016.74 1016.89 1016.83 1016.81 1016.94 1017.19 1017.36 1017.55 1017.67 1017.77 1017.87 1017.90 1017.91 1018.07 1018.26 1018.35 1018.39 1018.43 1018.54 1018.51 1018.28 1018.27 1018.43 1018.55 1018.57 1018.59 1018.55
1015.46 1015.09 1015.21 1015.54 1015.74 1015.88 1016.14 1016.27 1016.28 1016.30 1016.59 1016.92 1017.05 1017.10 1017.17 1017.04 1016.96 1017.04 1017.16 1017.30 1017.46 1017.65 1017.81 1017.96 1017.98 1018.05 1018.12 1018.22 1018.31 1018.30 1018.27 1018.42 1018.68 1018.79 1018.82 1018.75 1018.64 1018.55 1018.66 1018.82 1018.84 1018.94 1018.80
1015.67 1015.27 1015.29 1015.54 1015.76 1016.02 1016.11 1016.29 1016.33 1016.45 1016.64 1016.89 1017.14 1017.24 1017.29 1017.18 1017.19 1017.36 1017.56 1017.73 1017.85 1017.99 1018.13 1018.26 1018.34 1018.38 1018.44 1018.49 1018.53 1018.58 1018.52 1018.58 1018.83 1019.06 1019.11 1018.90 1018.71 1018.70 1018.78 1018.94 1019.07 1019.17 1019.15
1016.06 1015.64 1015.40 1015.60 1015.85 1016.00 1016.22 1016.41 1016.49 1016.59 1016.81 1016.97 1017.18 1017.33 1017.38 1017.39 1017.41 1017.60 1017.82 1018.00 1018.11 1018.22 1018.28 1018.34 1018.43 1018.57 1018.67 1018.71 1018.73 1018.77 1018.75 1018.84 1019.05 1019.19 1019.22 1019.18 1019.02 1018.90 1018.89 1019.02 1019.14 1019.29 1019.34
1016.52 1016.14 1015.74 1015.69 1015.92 1016.12 1016.28 1016.52 1016.55 1016.81 1016.92 1017.04 1017.29 1017.41 1017.47 1017.46 1017.54 1017.71 1017.93 1018.13 1018.27 1018.38 1018.50 1018.59 1018.64 1018.67 1018.80 1018.86 1018.90 1018.94 1018.90 1019.04 1019.22 1019.31 1019.33 1019.41 1019.22 1019.14 1019.20 1019.29 1019.40 1019.45 1019.50
1016.81 1016.65 1016.48 1016.30 1016.27 1016.33 1016.51 1016.57 1016.72 1016.94 1017.12 1017.13 1017.28 1017.47 1017.51 1017.60 1017.65 1017.76 1017.92 1018.15 1018.35 1018.49 1018.60 1018.67 1018.76 1018.81 1018.87 1018.94 1019.03 1019.11 1019.14 1019.17 1019.35 1019.41 1019.34 1019.41 1019.30 1019.31 1019.43 1019.58 1019.61 1019.59 1019.67
1017.19 1017.18 1017.10 1017.02 1016.97 1016.91 1016.89 1016.81 1016.79 1016.91 1017.16 1017.33 1017.36 1017.55 1017.58 1017.65 1017.72 1017.80 1017.94 1018.13 1018.22 1018.37 1018.67 1018.85 1018.89 1018.90 1018.92 1018.95 1019.09 1019.22 1019.31 1019.34 1019.46 1019.54 1019.45 1019.39 1019.23 1019.32 1019.49 1019.63 1019.70 1019.80 1019.87
1017.58 1017.45 1017.32 1017.42 1017.47 1017.45 1017.24 1017.21 1016.99 1016.87 1017.03 1017.24 1017.41 1017.55 1017.67 1017.75 1017.78 1017.87 1017.94 1018.10 1018.24 1018.32 1018.43 1018.75 1018.95 1019.00 1019.05 1019.11 1019.12 1019.26 1019.40 1019.54 1019.64 1019.66 1019.62 1019.48 1019.39 1019.41 1019.55 1019.68 1019.84 1019.91 1020.01
1018.34 1018.03 1017.91 1017.74 1017.66 1017.58 1017.51 1017.57 1017.41 1017.15 1017.05 1017.10 1017.31 1017.51 1017.68 1017.78 1017.82 1017.87 1018.02 1018.10 1018.17 1018.28 1018.34 1018.39 1018.73 1019.04 1019.14 1019.29 1019.36 1019.38 1019.51 1019.60 1019.66 1019.66 1019.62 1019.47 1019.39 1019.46 1019.60 1019.71 1019.87 1019.97 1020.03
1018.65 1018.39 1018.19 1018.03 1017.77 1017.79 1017.66 1017.58 1017.68 1017.58 1017.43 1017.25 1017.14 1017.31 1017.48 1017.62 1017.83 1017.96 1018.07 1018.14 1018.27 1018.31 1018.45 1018.47 1018.46 1018.77 1019.13 1019.30 1019.37 1019.44 1019.57 1019.60 1019.61 1019.56 1019.47 1019.44 1019.32 1019.31 1019.50 1019.62 1019.78 1019.92 1020.02
1018.90 1018.61 1018.33 1018.11 1018.03 1017.90 1017.87 1017.84 1017.68 1017.67 1017.62 1017.50 1017.47 1017.42 1017.23 1017.51 1017.65 1017.71 1017.94 1018.08 1018.16 1018.21 1018.35 1018.44 1018.46 1018.62 1018.94 1019.14 1019.23 1019.34 1019.40 1019.46 1019.41 1019.36 1019.36 1019.31 1019.29 1019.16 1019.29 1019.50 1019.67 1019.81 1019.87
1019.05 1018.70 1018.40 1018.28 1018.14 1017.92 1017.83 1017.77 1017.82 1017.76 1017.61 1017.48 1017.42 1017.39 1017.44 1017.28 1017.30 1017.39 1017.53 1017.76 1017.82 1018.05 1018.11 1018.19 1018.43 1018.51 1018.60 1018.85 1019.04 1019.10 1019.09 1019.19 1019.16 1019.11 1019.06 1019.06 1019.13 1019.11 1019.08 1019.21 1019.36 1019.50 1019.62
1019.09 1018.78 1018.42 1018.30 1018.09 1018.07 1017.99 1017.81 1017.69 1017.59 1017.48 1017.47 1017.30 1017.15 1017.23 1017.05 1017.11 1017.14 1017.12 1017.24 1017.35 1017.54 1017.71 1017.79 1017.99 1018.20 1018.43 1018.58 1018.67 1018.75 1018.72 1018.86 1018.85 1018.80 1018.74 1018.76 1018.83 1018.92 1018.88 1018.86 1018.99 1019.12 1019.25
1018.84 1018.49 1018.10 1017.83 1017.75 1017.76 1017.66 1017.65 1017.57 1017.43 1017.28 1017.34 1017.15 1017.06 1016.98 1016.82 1016.66 1016.69 1016.80 1016.81 1016.76 1016.95 1017.20 1017.42 1017.64 1017.85 1018.21 1018.24 1018.48 1018.32 1018.37 1018.40 1018.53 1018.46 1018.38 1018.47 1018.47 1018.60 1018.60 1018.58 1018.60 1018.74 1018.87
1018.84 1018.52 1018.13 1017.96 1017.76 1017.66 1017.59 1017.41 1017.37 1017.25 1017.19 1017.04 1017.00 1016.95 1016.81 1016.68 1016.47 1016.41 1016.26 1016.31 1016.34 1016.55 1016.56 1016.91 1017.24 1017.52 1017.78 1017.95 1018.23 1018.00 1017.90 1017.90 1017.99 1018.02 1017.94 1018.04 1018.10 1018.21 1018.24 1018.26 1018.31 1018.34 1018.39
1018.87 1018.62 1018.22 1018.00 1017.84 1017.68 1017.46 1017.31 1017.15 1016.94 1016.88 1016.66 1016.54 1016.55 1016.48 1016.42 1016.28 1016.03 1015.90 1015.62 1015.74 1016.02 1016.26 1016.46 1016.75 1016.92 1017.28 1017.29 1017.57 1017.73 1017.57 1017.51 1017.38 1017.36 1017.53 1017.53 1017.56 1017.61 1017.74 1017.80 1017.92 1017.98 1018.07
1018.98 1018.65 1018.33 1018.01 1017.78 1017.61 1017.41 1017.19 1016.98 1016.89 1016.59 1016.28 1016.13 1016.06 1015.91 1015.90 1015.89 1015.91 1015.54 1015.32 1015.26 1015.41 1015.58 1015.91 1016.16 1016.36 1016.48 1016.69 1016.97 1017.13 1017.10 1017.08 1017.01 1017.05 1016.93 1016.84 1017.01 1017.01 1017.13 1017.29 1017.45 1017.54 1017.57
1019.19 1018.97 1018.66 1018.39 1017.85 1017.68 1017.44 1017.30 1017.05 1016.66 1016.06 1015.86 1015.67 1015.43 1015.39 1015.36 1015.32 1015.42 1015.32 1015.19 1014.88 1014.86 1014.94 1015.19 1015.42 1015.77 1016.10 1016.31 1016.83 1016.82 1016.76 1016.56 1016.53 1016.42 1016.36 1016.32 1016.36 1016.32 1016.47 1016.68 1016.83 1016.95 1017.06
1019.66 1019.17 1018.66 1018.23 1017.83 1017.48 1017.26 1016.96 1016.70 1016.24 1015.66 1015.35 1015.02 1014.83 1014.74 1014.82 1014.77 1014.80 1014.97 1014.92 1014.87 1014.73 1014.39 1014.45 1014.87 1014.96 1015.18 1015.66 1015.91 1016.43 1016.28 1016.08 1015.72 1015.67 1015.89 1015.83 1015.60 1015.57 1015.75 1015.89 1016.11 1016.26 1016.38
1019.58 1019.03 1018.47 1017.93 1017.47 1017.13 1016.84 1016.49 1016.10 1015.74 1015.39 1014.99 1014.63 1014.41 1014.27 1014.20 1014.24 1014.21 1014.28 1014.37 1014.39 1014.42 1014.17 1014.01 1014.02 1014.32 1014.58 1014.76 1014.98 1015.30 1015.80 1015.40 1015.38 1014.88 1014.84 1014.88 1014.95 1015.04 1014.97 1015.02 1015.20 1015.26 1015.52
1019.03 1018.52 1017.99 1017.41 1016.95 1016.56 1016.23 1015.86 1015.65 1015.28 1014.80 1014.34 1013.99 1013.78 1013.66 1013.58 1013.62 1013.66 1013.65 1013.74 1013.77 1013.80 1013.78 1013.66 1013.62 1013.51 1013.63 1013.96 1014.64 1014.53 1014.51 1014.82 1015.04 1015.06 1014.58 1014.41 1014.56 1014.60 1014.37 1014.40 1014.33 1014.49 1014.68
1018.35 1017.96 1017.34 1016.82 1016.31 1015.80 1015.47 1015.17 1014.87 1014.50 1014.13 1013.62 1013.42 1013.35 1013.25 1013.13 1013.06 1013.11 1013.15 1013.26 1013.27 1013.25 1013.15 1013.12 1013.13 1013.10 1013.36 1013.18 1013.63 1013.92 1014.08 1014.41 1015.20 1014.50 1014.76 1014.69 1014.57 1014.14 1013.88 1013.69 1013.57 1013.70 1013.92
1017.81 1017.42 1016.79 1016.20 1015.59 1015.00 1014.69 1014.32 1014.00 1013.74 1013.42 1013.04 1012.97 1012.84 1012.76 1012.62 1012.54 1012.56 1012.63 1012.75 1012.72 1012.66 1012.63 1012.53 1012.55 1012.57 1012.59 1012.77 1012.89 1013.00 1013.42 1013.55 1013.85 1014.42 1013.96 1013.99 1014.28 1014.02 1013.30 1013.12 1012.95 1012.93 1012.98
Thickness
5738 5740 5741 5742 5741 5741 5740 5739 5739 5739 5740 5741 5742 5741 5741 5741 5741 5742 5741 5741 5741 5741 5740 5737 5734 5733 5731 5731 5731 5730 5730 5729 5728 5727 5726 5725 5722 5721 5719 5718 5717 5717 5715
5738 5740 5741 5741 5740 5739 5740 5738 5737 5737 5737 5738 5738 5739 5739 5739 5739 5739 5740 5740 5740 5741 5738 5736 5734 5732 5731 5729 5727 5727 5727 5726 5726 5724 5724 5722 5720 5719 5717 5715 5716 5714 5713
5739 5741 5741 5739 5738 5738 5738 5737 5736 5735 5735 5735 5736 5736 5737 5737 5737 5737 5738 5739 5739 5739 5737 5734 5732 5731 5730 5729 5726 5724 5724 5724 5723 5722 5722 5721 5719 5718 5715 5714 5713 5712 5711
5740 5744 5743 5739 5738 5737 5736 5735 5735 5735 5734 5732 5733 5734 5735 5736 5737 5736 5736 5737 5737 5735 5734 5732 5731 5729 5727 5727 5726 5724 5722 5722 5721 5720 5720 5720 5719 5717 5715 5712 5711 5709 5708
5740 5743 5742 5739 5737 5736 5735 5734 5734 5734 5732 5731 5731 5732 5732 5734 5735 5734 5733 5731 5731 5730 5729 5728 5728 5727 5725 5723 5723 5722 5722 5721 5718 5717 5717 5717 5717 5716 5713 5710 5708 5706 5706
5736 5740 5740 5738 5737 5735 5734 5733 5732 5731 5730 5729 5728 5728 5728 5731 5731 5730 5729 5727 5726 5726 5725 5725 5724 5723 5722 5721 5720 5720 5719 5719 5717 5715 5714 5714 5715 5713 5711 5708 5706 5704 5702
5731 5735 5737 5736 5735 5734 5732 5731 5730 5729 5727 5726 5725 5724 5725 5726 5726 5726 5725 5723 5723 5722 5722 5722 5721 5720 5719 5718 5718 5717 5717 5716 5715 5713 5712 5711 5711 5710 5710 5707 5705 5702 5700
5725 5729 5732 5732 5731 5730 5730 5727 5727 5726 5724 5724 5722 5721 5721 5722 5722 5722 5720 5719 5718 5718 5718 5718 5718 5717 5715 5714 5715 5714 5714 5713 5711 5710 5709 5708 5707 5707 5706 5704 5702 5701 5699
5720 5722 5724 5724 5725 5725 5724 5724 5723 5721 5721 5721 5720 5718 5718 5718 5718 5718 5717 5716 5714 5714 5714 5714 5713 5713 5712 5711 5711 5710 5709 5708 5708 5707 5706 5706 5705 5704 5703 5701 5699 5698 5696
5713 5714 5715 5715 5716 5717 5718 5719 5720 5719 5718 5717 5717 5715 5715 5715 5715 5714 5714 5713 5712 5712 5710 5710 5710 5709 5708 5707 5707 5706 5705 5704 5703 5702 5703 5703 5702 5701 5699 5697 5696 5694 5692
5704 5706 5708 5708 5708 5709 5711 5712 5714 5715 5715 5714 5713 5712 5711 5711 5712 5711 5711 5709 5708 5709 5708 5706 5705 5705 5704 5703 5702 5701 5701 5700 5699 5698 5698 5698 5698 5697 5695 5694 5692 5690 5689
5691 5696 5699 5700 5701 5703 5704 5705 5707 5709 5710 5711 5710 5709 5708 5708 5708 5708 5707 5706 5705 5704 5704 5703 5700 5700 5700 5699 5698 5696 5697 5696 5695 5694 5694 5694 5693 5693 5692 5690 5688 5687 5685
5684 5687 5691 5693 5696 5697 5698 5699 5699 5701 5703 5705 5707 5705 5705 5704 5703 5702 5702 5702 5701 5700 5698 5697 5697 5696 5695 5695 5695 5694 5692 5692 5692 5691 5690 5689 5689 5689 5688 5688 5686 5684 5682
5675 5678 5681 5684 5687 5690 5691 5692 5693 5693 5694 5696 5697 5698 5701 5700 5700 5699 5698 5697 5697 5696 5694 5694 5693 5693 5691 5691 5691 5691 5690 5689 5689 5689 5688 5687 5686 5686 5685 5684 5682 5681 5680
5668 5672 5674 5677 5678 5681 5683 5684 5686 5686 5687 5689 5690 5691 5692 5695 5696 5695 5695 5694 5693 5692 5691 5690 5689 5688 5686 5687 5687 5687 5688 5687 5688 5687 5686 5685 5683 5682 5682 5681 5680 5679 5677
5661 5664 5668 5670 5673 5673 5674 5675 5677 5680 5681 5683 5684 5685 5685 5688 5690 5691 5691 5691 5691 5690 5688 5687 5686 5684 5681 5682 5683 5684 5685 5684 5684 5685 5685 5684 5682 5680 5680 5681 5679 5678 5676
5657 5661 5665 5667 5667 5668 5669 5670 5671 5673 5674 5675 5678 5679 5679 5681 5684 5686 5687 5687 5688 5687 5686 5685 5684 5682 5679 5679 5680 5682 5682 5682 5680 5682 5683 5681 5681 5679 5678 5678 5678 5676 5675
5651 5653 5656 5657 5658 5660 5662 5664 5666 5667 5668 5670 5670 5672 5673 5674 5676 5678 5682 5684 5684 5682 5683 5683 5682 5680 5679 5679 5676 5677 5679 5680 5679 5679 5680 5679 5679 5678 5677 5676 5675 5675 5674
5640 5643 5646 5647 5648 5649 5651 5654 5657 5660 5663 5665 5666 5666 5666 5667 5669 5671 5675 5679 5679 5677 5677 5678 5678 5677 5676 5677 5676 5674 5676 5678 5679 5678 5677 5678 5678 5677 5676 5675 5673 5672 5671
5627 5630 5633 5635 5637 5638 5640 5643 5646 5649 5653 5656 5660 5661 5661 5662 5661 5662 5667 5671 5673 5674 5674 5674 5675 5674 5674 5674 5674 5674 5673 5674 5675 5677 5677 5677 5676 5675 5676 5674 5672 5669 5669
5612 5614 5616 5618 5622 5623 5625 5628 5632 5636 5643 5646 5649 5652 5655 5657 5657 5656 5658 5661 5666 5669 5670 5671 5671 5669 5669 5668 5663 5667 5669 5671 5673 5676 5675 5676 5675 5674 5674 5673 5671 5669 5667
5596 5599 5603 5605 5607 5609 5611 5614 5617 5624 5631 5636 5640 5644 5646 5647 5650 5651 5651 5652 5655 5659 5664 5666 5664 5666 5666 5664 5661 5657 5660 5666 5673 5675 5673 5673 5675 5674 5674 5672 5670 5668 5667
5583 5586 5589 5593 5595 5596 5598 5601 5604 5608 5615 5622 5628 5631 5634 5637 5640 5643 5644 5645 5648 5650 5654 5658 5660 5659 5658 5660 5660 5655 5648 5657 5663 5671 5673 5673 5674 5672 5673 5671 5669 5668 5666
5574 5575 5577 5579 5581 5583 5582 5586 5588 5594 5602 5609 5615 5619 5623 5625 5629 5632 5636 5638 5641 5644 5646 5650 5652 5654 5655 5654 5651 5655 5656 5655 5655 5657 5664 5666 5666 5667 5670 5669 5667 5665 5664
5566 5563 5563 5563 5564 5566 5568 5569 5573 5579 5586 5594 5598 5602 5607 5612 5616 5620 5623 5627 5631 5634 5639 5642 5644 5646 5646 5648 5648 5647 5648 5646 5640 5650 5650 5650 5650 5658 5662 5665 5665 5664 5663
5557 5554 5552 5553 5552 5552 5550 5551 5554 5558 5566 5576 5581 5586 5592 5598 5603 5608 5611 5615 5620 5625 5629 5633 5635 5637 5640 5640 5641 5643 5641 5639 5639 5634 5641 5645 5636 5643 5652 5656 5660 5660 5659